Time,TemperatureF,DewpointF,PressureIn,WindDirection,WindDirectionDegrees,WindSpeedMPH,WindSpeedGustMPH,Humidity,HourlyPrecipIn,Conditions,Clouds,dailyrainin,SoftwareType,DateUTC
2013-08-13 00:01:00,74.1,63.3,29.96,NNE,33,0.0,0.0,69,0.00,,---,0.00,VWS V13.01,2013-08-13 04:01:00,
2013-08-13 00:02:00,74.1,63.3,29.96,NNE,33,0.0,0.0,69,0.00,,---,0.00,VWS V13.01,2013-08-13 04:02:00,
2013-08-13 00:07:00,74.1,63.3,29.96,NNE,33,0.0,0.0,69,0.00,,---,0.00,VWS V13.01,2013-08-13 04:07:00,
2013-08-13 00:12:00,74.1,63.3,29.96,NNE,33,0.0,0.0,69,0.00,,---,0.00,VWS V13.01,2013-08-13 04:12:00,
2013-08-13 00:17:00,73.9,63.1,29.96,NNE,33,0.0,0.0,69,0.00,,---,0.00,VWS V13.01,2013-08-13 04:17:00,
2013-08-13 00:22:00,73.9,63.1,29.96,NNE,33,0.0,0.0,69,0.00,,---,0.00,VWS V13.01,2013-08-13 04:22:00,
2013-08-13 00:27:00,73.9,62.7,29.96,NNE,33,0.0,0.0,68,0.00,,---,0.00,VWS V13.01,2013-08-13 04:27:00,
2013-08-13 00:32:00,73.9,63.1,29.96,NNE,33,0.0,0.0,69,0.00,,---,0.00,VWS V13.01,2013-08-13 04:32:00,
2013-08-13 00:37:00,73.8,63.0,29.96,NNE,33,0.0,0.0,69,0.00,,---,0.00,VWS V13.01,2013-08-13 04:37:00,
2013-08-13 00:42:00,73.8,63.0,29.96,NNE,33,0.0,0.0,69,0.00,,---,0.00,VWS V13.01,2013-08-13 04:42:00,
2013-08-13 00:47:00,73.8,63.0,29.96,NNE,33,0.0,0.0,69,0.00,,---,0.00,VWS V13.01,2013-08-13 04:47:00,
2013-08-13 00:52:00,73.6,62.8,29.96,NNE,33,0.0,0.0,69,0.00,,---,0.00,VWS V13.01,2013-08-13 04:52:00,
2013-08-13 00:57:00,73.6,62.8,29.96,NNE,33,0.0,0.0,69,0.00,,---,0.00,VWS V13.01,2013-08-13 04:57:00,
2013-08-13 01:02:00,73.4,62.6,29.96,NNE,33,0.0,0.0,69,0.00,,---,0.00,VWS V13.01,2013-08-13 05:02:00,
2013-08-13 01:07:00,73.4,62.6,29.96,NNE,33,0.0,0.0,69,0.00,,---,0.00,VWS V13.01,2013-08-13 05:07:00,
2013-08-13 01:12:00,73.2,62.9,29.96,NNE,33,0.0,0.0,70,0.00,,---,0.00,VWS V13.01,2013-08-13 05:12:00,
2013-08-13 01:17:00,73.2,62.9,29.96,NNE,33,0.0,0.0,70,0.00,,---,0.00,VWS V13.01,2013-08-13 05:17:00,
2013-08-13 01:22:00,73.2,62.9,29.96,NNE,33,0.0,0.0,70,0.00,,---,0.00,VWS V13.01,2013-08-13 05:22:00,
2013-08-13 01:27:00,73.0,62.7,29.96,NNE,33,0.0,0.0,70,0.00,,---,0.00,VWS V13.01,2013-08-13 05:27:00,
2013-08-13 01:32:00,73.0,62.7,29.96,NNE,33,0.0,0.0,70,0.00,,---,0.00,VWS V13.01,2013-08-13 05:32:00,
2013-08-13 01:37:00,72.9,62.5,29.96,NNE,33,0.0,0.0,70,0.00,,---,0.00,VWS V13.01,2013-08-13 05:37:00,
2013-08-13 01:42:00,72.7,62.3,29.96,NNE,33,0.0,0.0,70,0.00,,---,0.00,VWS V13.01,2013-08-13 05:42:00,
2013-08-13 01:47:00,72.7,62.3,29.96,NNE,33,0.0,0.0,70,0.00,,---,0.00,VWS V13.01,2013-08-13 05:47:00,
2013-08-13 01:52:00,72.7,62.3,29.96,NNE,33,0.0,0.0,70,0.00,,---,0.00,VWS V13.01,2013-08-13 05:52:00,
2013-08-13 01:57:00,72.5,62.2,29.96,NNE,33,0.0,0.0,70,0.00,,---,0.00,VWS V13.01,2013-08-13 05:57:00,
2013-08-13 02:02:00,72.3,62.0,29.96,NNE,33,0.0,0.0,70,0.00,,---,0.00,VWS V13.01,2013-08-13 06:02:00,
2013-08-13 02:07:00,72.3,62.0,29.96,NNE,33,0.0,0.0,70,0.00,,---,0.00,VWS V13.01,2013-08-13 06:07:00,
2013-08-13 02:12:00,72.3,62.0,29.96,NNE,33,0.0,0.0,70,0.00,,---,0.00,VWS V13.01,2013-08-13 06:12:00,
2013-08-13 02:17:00,72.3,62.4,29.96,NNE,33,0.0,0.0,71,0.00,,---,0.00,VWS V13.01,2013-08-13 06:17:00,
2013-08-13 02:22:00,72.3,62.4,29.96,NNE,33,0.0,0.0,71,0.00,,---,0.00,VWS V13.01,2013-08-13 06:22:00,
2013-08-13 02:27:00,72.3,62.4,29.96,NNE,33,0.0,0.0,71,0.00,,---,0.00,VWS V13.01,2013-08-13 06:27:00,
2013-08-13 02:32:00,72.1,62.2,29.96,NNE,33,0.0,0.0,71,0.00,,---,0.00,VWS V13.01,2013-08-13 06:32:00,
2013-08-13 02:37:00,72.1,62.2,29.96,NNE,33,0.0,0.0,71,0.00,,---,0.00,VWS V13.01,2013-08-13 06:37:00,
2013-08-13 02:42:00,72.0,62.0,29.96,NNE,33,0.0,0.0,71,0.00,,---,0.00,VWS V13.01,2013-08-13 06:42:00,
2013-08-13 02:47:00,72.0,62.0,29.96,NNE,33,0.0,0.0,71,0.00,,---,0.00,VWS V13.01,2013-08-13 06:47:00,
2013-08-13 02:52:00,71.8,61.9,29.96,NNE,33,0.0,0.0,71,0.00,,---,0.00,VWS V13.01,2013-08-13 06:52:00,
2013-08-13 02:57:00,71.8,61.9,29.96,NNE,33,0.0,0.0,71,0.00,,---,0.00,VWS V13.01,2013-08-13 06:57:00,
2013-08-13 03:02:00,71.8,61.9,29.96,NNE,33,0.0,0.0,71,0.00,,---,0.00,VWS V13.01,2013-08-13 07:02:00,
2013-08-13 03:07:00,71.8,61.9,29.96,NNE,33,0.0,0.0,71,0.00,,---,0.00,VWS V13.01,2013-08-13 07:07:00,
2013-08-13 03:12:00,71.8,61.9,29.96,NNE,33,0.0,0.0,71,0.00,,---,0.00,VWS V13.01,2013-08-13 07:12:00,
2013-08-13 03:17:00,71.6,61.7,29.96,NNE,28,0.0,0.0,71,0.00,,---,0.00,VWS V13.01,2013-08-13 07:17:00,
2013-08-13 03:22:00,71.6,61.7,29.96,NNE,28,0.0,0.0,71,0.00,,---,0.00,VWS V13.01,2013-08-13 07:22:00,
2013-08-13 03:27:00,71.4,61.5,29.96,NNE,28,0.0,0.0,71,0.00,,---,0.00,VWS V13.01,2013-08-13 07:27:00,
2013-08-13 03:32:00,71.4,61.5,29.96,NE,36,0.0,0.0,71,0.00,,---,0.00,VWS V13.01,2013-08-13 07:32:00,
2013-08-13 03:37:00,71.2,61.4,29.96,NNE,23,0.0,0.0,71,0.00,,---,0.00,VWS V13.01,2013-08-13 07:37:00,
2013-08-13 03:42:00,71.2,61.4,29.96,NNE,23,0.0,0.0,71,0.00,,---,0.00,VWS V13.01,2013-08-13 07:42:00,
2013-08-13 03:47:00,71.1,61.6,29.96,ENE,67,0.0,0.0,72,0.00,,---,0.00,VWS V13.01,2013-08-13 07:47:00,
2013-08-13 03:52:00,70.9,61.4,29.96,NE,51,0.0,0.0,72,0.00,,---,0.00,VWS V13.01,2013-08-13 07:52:00,
2013-08-13 03:57:00,70.7,61.2,29.96,North,6,0.0,0.0,72,0.00,,---,0.00,VWS V13.01,2013-08-13 07:57:00,
2013-08-13 04:02:00,70.7,61.2,29.96,North,6,0.0,0.0,72,0.00,,---,0.00,VWS V13.01,2013-08-13 08:02:00,
2013-08-13 04:07:00,70.5,61.1,29.96,North,6,0.0,0.0,72,0.00,,---,0.00,VWS V13.01,2013-08-13 08:07:00,
2013-08-13 04:12:00,70.5,61.1,29.96,ENE,78,0.0,0.0,72,0.00,,---,0.00,VWS V13.01,2013-08-13 08:12:00,
2013-08-13 04:17:00,70.5,61.1,29.96,ENE,78,0.0,0.0,72,0.00,,---,0.00,VWS V13.01,2013-08-13 08:17:00,
2013-08-13 04:21:00,70.5,61.1,29.96,WNW,296,0.0,0.0,72,0.00,,---,0.00,VWS V13.01,2013-08-13 08:21:00,
2013-08-13 04:27:00,70.3,60.9,29.96,North,6,2.2,2.2,72,0.00,,---,0.00,VWS V13.01,2013-08-13 08:27:00,
2013-08-13 04:31:00,70.3,60.5,29.96,North,6,0.0,2.7,71,0.00,,---,0.00,VWS V13.01,2013-08-13 08:31:00,
2013-08-13 04:37:00,70.2,60.3,29.96,North,6,0.0,0.0,71,0.00,,---,0.00,VWS V13.01,2013-08-13 08:37:00,
2013-08-13 04:42:00,70.0,60.5,29.96,North,6,3.1,3.1,72,0.00,,---,0.00,VWS V13.01,2013-08-13 08:42:00,
2013-08-13 04:47:00,70.0,60.5,29.96,NNE,12,0.0,0.0,72,0.00,,---,0.00,VWS V13.01,2013-08-13 08:47:00,
2013-08-13 04:52:00,70.0,60.5,29.96,NNE,12,0.0,0.0,72,0.00,,---,0.00,VWS V13.01,2013-08-13 08:52:00,
2013-08-13 04:57:00,70.0,60.5,29.96,NNE,12,0.0,0.0,72,0.00,,---,0.00,VWS V13.01,2013-08-13 08:57:00,
2013-08-13 05:02:00,69.8,60.4,29.96,NNE,12,0.0,0.0,72,0.00,,---,0.00,VWS V13.01,2013-08-13 09:02:00,
2013-08-13 05:07:00,69.8,60.4,29.96,NNW,342,0.0,0.0,72,0.00,,---,0.00,VWS V13.01,2013-08-13 09:07:00,
2013-08-13 05:12:00,69.8,60.4,29.96,NNW,342,0.0,0.0,72,0.00,,---,0.00,VWS V13.01,2013-08-13 09:12:00,
2013-08-13 05:17:00,69.6,60.2,29.96,North,11,0.0,0.0,72,0.00,,---,0.00,VWS V13.01,2013-08-13 09:17:00,
2013-08-13 05:22:00,69.6,60.2,29.96,NE,41,0.0,0.0,72,0.00,,---,0.00,VWS V13.01,2013-08-13 09:22:00,
2013-08-13 05:27:00,69.6,60.2,29.96,NE,41,0.0,0.0,72,0.00,,---,0.00,VWS V13.01,2013-08-13 09:27:00,
2013-08-13 05:32:00,69.6,60.2,29.96,NE,41,0.0,0.0,72,0.00,,---,0.00,VWS V13.01,2013-08-13 09:32:00,
2013-08-13 05:37:00,69.4,60.0,29.96,NE,41,0.0,0.0,72,0.00,,---,0.00,VWS V13.01,2013-08-13 09:37:00,
2013-08-13 05:42:00,69.4,60.0,29.96,NE,40,0.0,0.0,72,0.00,,---,0.00,VWS V13.01,2013-08-13 09:42:00,
2013-08-13 05:47:00,69.4,60.4,29.96,NE,40,0.0,0.0,73,0.00,,---,0.00,VWS V13.01,2013-08-13 09:47:00,
2013-08-13 05:52:00,69.4,60.8,29.96,NE,40,0.0,0.0,74,0.00,,---,0.00,VWS V13.01,2013-08-13 09:52:00,
2013-08-13 05:57:00,69.4,60.8,29.96,NE,40,0.0,0.0,74,0.00,,---,0.00,VWS V13.01,2013-08-13 09:57:00,
2013-08-13 06:02:00,69.4,60.8,29.96,NE,41,0.0,0.0,74,0.00,,---,0.00,VWS V13.01,2013-08-13 10:02:00,
2013-08-13 06:07:00,69.4,60.8,29.96,NE,40,0.0,0.0,74,0.00,,---,0.00,VWS V13.01,2013-08-13 10:07:00,
2013-08-13 06:12:00,69.3,60.6,29.96,NE,40,0.0,0.0,74,0.00,,---,0.00,VWS V13.01,2013-08-13 10:12:00,
2013-08-13 06:17:00,69.3,60.6,29.96,NE,40,0.0,0.0,74,0.00,,---,0.00,VWS V13.01,2013-08-13 10:17:00,
2013-08-13 06:22:00,69.3,61.0,29.96,NE,40,0.0,0.0,75,0.00,,---,0.00,VWS V13.01,2013-08-13 10:22:00,
2013-08-13 06:27:00,69.3,61.0,29.96,NE,40,0.0,0.0,75,0.00,,---,0.00,VWS V13.01,2013-08-13 10:27:00,
2013-08-13 06:32:00,69.3,61.0,29.96,NE,40,0.0,0.0,75,0.00,,---,0.00,VWS V13.01,2013-08-13 10:32:00,
2013-08-13 06:37:00,69.3,61.0,29.96,NE,40,0.0,0.0,75,0.00,,---,0.00,VWS V13.01,2013-08-13 10:37:00,
2013-08-13 06:42:00,69.3,61.0,29.96,NE,40,0.0,0.0,75,0.00,,---,0.00,VWS V13.01,2013-08-13 10:42:00,
2013-08-13 06:47:00,69.3,61.4,29.96,NE,40,0.0,0.0,76,0.00,,---,0.00,VWS V13.01,2013-08-13 10:47:00,
2013-08-13 06:52:00,69.3,61.4,29.96,NE,41,0.0,0.0,76,0.00,,---,0.00,VWS V13.01,2013-08-13 10:52:00,
2013-08-13 06:57:00,69.3,61.4,29.96,NE,41,0.0,0.0,76,0.00,,---,0.00,VWS V13.01,2013-08-13 10:57:00,
2013-08-13 07:02:00,69.3,61.4,29.96,NE,41,0.0,0.0,76,0.00,,---,0.00,VWS V13.01,2013-08-13 11:02:00,
2013-08-13 07:07:00,69.3,61.4,29.96,NE,41,0.0,0.0,76,0.00,,---,0.00,VWS V13.01,2013-08-13 11:07:00,
2013-08-13 07:12:00,69.4,61.5,29.96,NE,40,0.0,0.0,76,0.00,,---,0.00,VWS V13.01,2013-08-13 11:12:00,
2013-08-13 07:17:00,69.4,61.5,29.96,NE,41,0.0,0.0,76,0.00,,---,0.00,VWS V13.01,2013-08-13 11:17:00,
2013-08-13 07:22:00,69.4,61.5,29.96,NE,41,0.0,0.0,76,0.00,,---,0.00,VWS V13.01,2013-08-13 11:22:00,
2013-08-13 07:27:00,69.4,61.5,29.96,NE,40,0.0,0.0,76,0.00,,---,0.00,VWS V13.01,2013-08-13 11:27:00,
2013-08-13 07:32:00,69.6,61.7,29.96,ENE,69,0.0,0.0,76,0.00,,---,0.00,VWS V13.01,2013-08-13 11:32:00,
2013-08-13 07:37:00,69.8,61.9,29.96,ENE,69,0.0,0.0,76,0.00,,---,0.00,VWS V13.01,2013-08-13 11:37:00,
2013-08-13 07:42:00,69.8,61.9,29.96,ENE,69,0.0,0.0,76,0.00,,---,0.00,VWS V13.01,2013-08-13 11:42:00,
2013-08-13 07:47:00,69.8,61.9,29.96,ENE,69,0.0,0.0,76,0.00,,---,0.00,VWS V13.01,2013-08-13 11:47:00,
2013-08-13 07:52:00,70.0,62.1,29.96,ENE,69,0.0,0.0,76,0.00,,---,0.00,VWS V13.01,2013-08-13 11:52:00,
2013-08-13 07:57:00,70.0,62.1,29.96,ENE,69,0.0,0.0,76,0.00,,---,0.00,VWS V13.01,2013-08-13 11:57:00,
2013-08-13 08:02:00,70.0,62.1,29.96,ENE,69,0.0,0.0,76,0.00,,---,0.00,VWS V13.01,2013-08-13 12:02:00,
2013-08-13 08:07:00,70.0,62.1,29.96,ENE,69,0.0,0.0,76,0.00,,---,0.00,VWS V13.01,2013-08-13 12:07:00,
2013-08-13 08:12:00,70.2,62.2,29.96,ENE,69,0.0,0.0,76,0.00,,---,0.00,VWS V13.01,2013-08-13 12:12:00,
2013-08-13 08:17:00,70.2,62.2,29.96,ENE,69,0.0,0.0,76,0.00,,---,0.00,VWS V13.01,2013-08-13 12:17:00,
2013-08-13 08:22:00,70.3,62.4,29.96,NE,35,0.0,0.0,76,0.00,,---,0.00,VWS V13.01,2013-08-13 12:22:00,
2013-08-13 08:27:00,70.3,62.4,29.96,ENE,65,0.0,0.0,76,0.00,,---,0.00,VWS V13.01,2013-08-13 12:27:00,
2013-08-13 08:32:00,70.3,62.8,29.96,ENE,65,0.0,0.0,77,0.00,,---,0.00,VWS V13.01,2013-08-13 12:32:00,
2013-08-13 08:37:00,70.3,62.8,29.96,ENE,65,0.0,0.0,77,0.00,,---,0.00,VWS V13.01,2013-08-13 12:37:00,
2013-08-13 08:42:00,70.3,62.8,29.96,ENE,65,0.0,0.0,77,0.00,,---,0.00,VWS V13.01,2013-08-13 12:42:00,
2013-08-13 08:47:00,70.5,63.0,29.96,ENE,65,0.0,0.0,77,0.00,,---,0.00,VWS V13.01,2013-08-13 12:47:00,
2013-08-13 08:52:00,70.9,63.3,29.96,ENE,65,0.0,0.0,77,0.00,,---,0.00,VWS V13.01,2013-08-13 12:52:00,
2013-08-13 08:57:00,71.1,63.5,29.96,ENE,65,0.0,0.0,77,0.00,,---,0.00,VWS V13.01,2013-08-13 12:57:00,
2013-08-13 09:02:00,71.2,63.7,29.96,ENE,65,0.0,0.0,77,0.00,,---,0.00,VWS V13.01,2013-08-13 13:02:00,
2013-08-13 09:07:00,71.2,63.7,29.96,ENE,65,0.0,0.0,77,0.00,,---,0.00,VWS V13.01,2013-08-13 13:07:00,
2013-08-13 09:12:00,71.4,63.8,29.96,ENE,63,0.0,0.0,77,0.00,,---,0.00,VWS V13.01,2013-08-13 13:12:00,
2013-08-13 09:17:00,71.4,63.8,29.96,ENE,63,0.0,0.0,77,0.00,,---,0.00,VWS V13.01,2013-08-13 13:17:00,
2013-08-13 09:22:00,71.2,63.7,29.96,ENE,63,0.0,0.0,77,0.00,,---,0.00,VWS V13.01,2013-08-13 13:22:00,
2013-08-13 09:27:00,71.1,63.5,29.96,ENE,68,0.0,0.0,77,0.00,,---,0.00,VWS V13.01,2013-08-13 13:27:00,
2013-08-13 09:32:00,71.1,63.5,29.96,ENE,68,0.0,0.0,77,0.04,,---,0.04,VWS V13.01,2013-08-13 13:32:00,
2013-08-13 09:37:00,71.1,63.5,29.96,ENE,68,0.0,0.0,77,0.04,,---,0.04,VWS V13.01,2013-08-13 13:37:00,
2013-08-13 09:42:00,71.1,63.5,29.96,ENE,68,0.0,0.0,77,0.04,,---,0.04,VWS V13.01,2013-08-13 13:42:00,
2013-08-13 09:47:00,71.2,63.7,29.96,ENE,68,0.0,0.0,77,0.04,,---,0.04,VWS V13.01,2013-08-13 13:47:00,
2013-08-13 09:52:00,71.2,63.7,29.96,ENE,68,0.0,0.0,77,0.04,,---,0.04,VWS V13.01,2013-08-13 13:52:00,
2013-08-13 09:57:00,71.2,63.7,29.96,NW,308,0.0,0.0,77,0.04,,---,0.04,VWS V13.01,2013-08-13 13:57:00,
2013-08-13 10:02:00,71.4,64.2,29.96,NW,308,0.0,0.0,78,0.04,,---,0.04,VWS V13.01,2013-08-13 14:02:00,
2013-08-13 10:07:00,71.4,64.2,29.96,NW,308,0.0,0.0,78,0.04,,---,0.04,VWS V13.01,2013-08-13 14:07:00,
2013-08-13 10:12:00,71.6,64.4,29.96,NW,308,0.0,0.0,78,0.04,,---,0.04,VWS V13.01,2013-08-13 14:12:00,
2013-08-13 10:17:00,71.6,64.4,29.96,NW,308,0.0,0.0,78,0.04,,---,0.04,VWS V13.01,2013-08-13 14:17:00,
2013-08-13 10:22:00,71.8,64.6,29.96,NW,308,0.0,0.0,78,0.04,,---,0.04,VWS V13.01,2013-08-13 14:22:00,
2013-08-13 10:27:00,72.0,64.7,29.96,NW,308,0.0,0.0,78,0.04,,---,0.04,VWS V13.01,2013-08-13 14:27:00,
2013-08-13 10:32:00,72.1,64.9,29.96,NW,308,0.0,0.0,78,0.00,,---,0.04,VWS V13.01,2013-08-13 14:32:00,
2013-08-13 10:37:00,72.3,65.1,29.96,NW,308,0.0,0.0,78,0.00,,---,0.04,VWS V13.01,2013-08-13 14:37:00,
2013-08-13 10:42:00,72.3,65.1,29.96,NW,308,0.0,0.0,78,0.00,,---,0.04,VWS V13.01,2013-08-13 14:42:00,
2013-08-13 10:47:00,72.9,65.6,29.96,NW,308,0.0,0.0,78,0.00,,---,0.04,VWS V13.01,2013-08-13 14:47:00,
2013-08-13 10:52:00,73.0,65.8,29.96,NW,308,0.0,0.0,78,0.00,,---,0.04,VWS V13.01,2013-08-13 14:52:00,
2013-08-13 10:57:00,73.4,66.1,29.96,NW,308,0.0,0.0,78,0.00,,---,0.04,VWS V13.01,2013-08-13 14:57:00,
2013-08-13 11:02:00,73.6,66.3,29.96,NW,308,0.0,0.0,78,0.00,,---,0.04,VWS V13.01,2013-08-13 15:02:00,
2013-08-13 11:07:00,73.8,66.5,29.96,NW,308,0.0,0.0,78,0.00,,---,0.04,VWS V13.01,2013-08-13 15:07:00,
2013-08-13 11:12:00,73.8,66.5,29.96,NW,308,0.0,0.0,78,0.00,,---,0.04,VWS V13.01,2013-08-13 15:12:00,
2013-08-13 11:17:00,74.1,66.8,29.96,NW,308,0.0,0.0,78,0.00,,---,0.04,VWS V13.01,2013-08-13 15:17:00,
2013-08-13 11:22:00,74.3,67.0,29.96,NW,308,0.0,0.0,78,0.00,,---,0.04,VWS V13.01,2013-08-13 15:22:00,
2013-08-13 11:27:00,74.5,67.2,29.96,NW,314,0.0,0.0,78,0.00,,---,0.04,VWS V13.01,2013-08-13 15:27:00,
2013-08-13 11:32:00,75.0,67.7,29.96,SE,132,3.6,3.6,78,0.00,,---,0.04,VWS V13.01,2013-08-13 15:32:00,
2013-08-13 11:37:00,75.0,67.7,29.96,North,350,0.0,0.0,78,0.00,,---,0.04,VWS V13.01,2013-08-13 15:37:00,
2013-08-13 11:42:00,75.4,67.7,29.96,North,350,0.0,0.0,77,0.00,,---,0.04,VWS V13.01,2013-08-13 15:42:00,
2013-08-13 11:47:00,75.7,68.0,29.96,North,350,0.0,0.0,77,0.00,,---,0.04,VWS V13.01,2013-08-13 15:47:00,
2013-08-13 11:52:00,76.1,68.0,29.96,North,350,0.0,0.0,76,0.00,,---,0.04,VWS V13.01,2013-08-13 15:52:00,
2013-08-13 11:57:00,76.3,67.8,29.96,ESE,122,0.0,0.0,75,0.00,,---,0.04,VWS V13.01,2013-08-13 15:57:00,
2013-08-13 12:02:00,76.1,66.8,29.96,ESE,122,0.0,0.0,73,0.00,,---,0.04,VWS V13.01,2013-08-13 16:02:00,
2013-08-13 12:07:00,76.1,66.8,29.96,ESE,122,0.0,0.0,73,0.00,,---,0.04,VWS V13.01,2013-08-13 16:07:00,
2013-08-13 12:12:00,76.5,67.6,29.96,NW,315,0.0,0.0,74,0.00,,---,0.04,VWS V13.01,2013-08-13 16:12:00,
2013-08-13 12:17:00,76.6,67.7,29.96,NE,39,0.0,0.0,74,0.00,,---,0.04,VWS V13.01,2013-08-13 16:17:00,
2013-08-13 12:22:00,77.0,66.5,29.96,NE,50,0.0,0.0,70,0.00,,---,0.04,VWS V13.01,2013-08-13 16:22:00,
2013-08-13 12:27:00,77.4,66.4,29.96,NNE,30,0.0,0.0,69,0.00,,---,0.04,VWS V13.01,2013-08-13 16:27:00,
2013-08-13 12:32:00,77.9,66.9,29.96,North,357,0.0,0.0,69,0.00,,---,0.04,VWS V13.01,2013-08-13 16:32:00,
2013-08-13 12:37:00,79.3,66.1,29.96,North,357,0.0,0.0,64,0.00,,---,0.04,VWS V13.01,2013-08-13 16:37:00,
2013-08-13 12:42:00,79.5,65.8,29.96,NNW,348,0.0,0.0,63,0.00,,---,0.04,VWS V13.01,2013-08-13 16:42:00,
2013-08-13 12:47:00,80.1,65.9,29.96,North,353,0.0,0.0,62,0.00,,---,0.04,VWS V13.01,2013-08-13 16:47:00,
2013-08-13 12:52:00,80.2,61.6,29.96,SW,227,2.7,2.7,53,0.00,,---,0.04,VWS V13.01,2013-08-13 16:52:00,
2013-08-13 12:57:00,80.2,62.6,29.96,ENE,59,0.0,0.0,55,0.00,,---,0.04,VWS V13.01,2013-08-13 16:57:00,
2013-08-13 13:02:00,80.2,62.6,29.96,NW,319,0.0,0.0,55,0.00,,---,0.04,VWS V13.01,2013-08-13 17:02:00,
2013-08-13 13:07:00,81.5,62.2,29.96,NNE,30,0.0,0.0,52,0.00,,---,0.04,VWS V13.01,2013-08-13 17:07:00,
2013-08-13 13:12:00,82.2,62.9,29.96,West,275,0.0,0.0,52,0.00,,---,0.04,VWS V13.01,2013-08-13 17:12:00,
2013-08-13 13:17:00,83.1,62.0,29.96,ENE,71,0.0,0.0,49,0.00,,---,0.04,VWS V13.01,2013-08-13 17:17:00,
2013-08-13 13:22:00,83.5,60.5,29.96,North,10,0.0,0.0,46,0.00,,---,0.04,VWS V13.01,2013-08-13 17:22:00,
2013-08-13 13:27:00,83.5,60.5,29.96,NNW,331,0.0,0.0,46,0.00,,---,0.04,VWS V13.01,2013-08-13 17:27:00,
2013-08-13 13:32:00,82.8,57.3,29.96,SSE,163,0.0,0.0,42,0.00,,---,0.04,VWS V13.01,2013-08-13 17:32:00,
2013-08-13 13:37:00,83.1,59.6,29.96,SSE,163,0.0,0.0,45,0.00,,---,0.04,VWS V13.01,2013-08-13 17:37:00,
2013-08-13 13:42:00,83.5,59.9,29.96,ENE,61,0.0,0.0,45,0.00,,---,0.04,VWS V13.01,2013-08-13 17:42:00,
2013-08-13 13:47:00,83.3,58.5,29.96,SSW,193,2.7,4.0,43,0.00,,---,0.04,VWS V13.01,2013-08-13 17:47:00,
2013-08-13 13:52:00,82.8,58.0,29.96,SSE,149,0.0,0.0,43,0.00,,---,0.04,VWS V13.01,2013-08-13 17:52:00,
2013-08-13 13:57:00,83.8,57.7,29.96,SE,124,2.7,2.7,41,0.00,,---,0.04,VWS V13.01,2013-08-13 17:57:00,
2013-08-13 14:02:00,85.1,58.8,29.96,South,186,0.0,2.7,41,0.00,,---,0.04,VWS V13.01,2013-08-13 18:02:00,
2013-08-13 14:07:00,85.5,59.1,29.96,SW,218,2.7,2.7,41,0.00,,---,0.04,VWS V13.01,2013-08-13 18:07:00,
2013-08-13 14:12:00,85.8,58.0,29.96,South,174,2.7,2.7,39,0.00,,---,0.04,VWS V13.01,2013-08-13 18:12:00,
2013-08-13 14:17:00,86.0,57.5,29.96,NNE,18,0.0,0.0,38,0.00,,---,0.04,VWS V13.01,2013-08-13 18:17:00,
2013-08-13 14:22:00,86.4,57.0,29.96,SSE,163,0.0,0.0,37,0.00,,---,0.04,VWS V13.01,2013-08-13 18:22:00,
2013-08-13 14:27:00,86.9,58.3,29.96,SW,217,0.0,3.6,38,0.00,,---,0.04,VWS V13.01,2013-08-13 18:27:00,
2013-08-13 14:32:00,87.1,55.3,29.96,North,3,0.0,0.0,34,0.00,,---,0.04,VWS V13.01,2013-08-13 18:32:00,
2013-08-13 14:37:00,87.1,55.3,29.96,North,3,0.0,0.0,34,0.00,,---,0.04,VWS V13.01,2013-08-13 18:37:00,
2013-08-13 14:42:00,87.1,56.1,29.96,NNE,27,0.0,0.0,35,0.00,,---,0.04,VWS V13.01,2013-08-13 18:42:00,
2013-08-13 14:47:00,86.7,56.6,29.96,North,357,2.7,2.7,36,0.00,,---,0.04,VWS V13.01,2013-08-13 18:47:00,
2013-08-13 14:52:00,86.7,55.8,29.96,North,0,4.0,4.0,35,0.00,,---,0.04,VWS V13.01,2013-08-13 18:52:00,
2013-08-13 14:57:00,86.0,55.2,29.96,NNE,14,0.0,3.6,35,0.00,,---,0.04,VWS V13.01,2013-08-13 18:57:00,
2013-08-13 15:02:00,85.6,55.7,29.96,North,357,0.0,0.0,36,0.00,,---,0.04,VWS V13.01,2013-08-13 19:02:00,
2013-08-13 15:07:00,84.0,57.1,29.96,ENE,58,0.0,0.0,40,0.00,,---,0.04,VWS V13.01,2013-08-13 19:07:00,
2013-08-13 15:12:00,81.5,60.5,29.96,East,92,0.0,0.0,49,0.00,,---,0.04,VWS V13.01,2013-08-13 19:12:00,
2013-08-13 15:17:00,79.2,61.6,29.96,ESE,103,0.0,0.0,55,0.31,,---,0.35,VWS V13.01,2013-08-13 19:17:00,
2013-08-13 15:22:00,77.2,63.6,29.96,ESE,118,0.0,0.0,63,0.35,,---,0.39,VWS V13.01,2013-08-13 19:22:00,
2013-08-13 15:27:00,76.6,64.9,29.96,ESE,118,0.0,0.0,67,0.35,,---,0.39,VWS V13.01,2013-08-13 19:27:00,
2013-08-13 15:32:00,77.5,66.6,29.96,ESE,118,0.0,0.0,69,0.35,,---,0.39,VWS V13.01,2013-08-13 19:32:00,
2013-08-13 15:37:00,77.7,67.2,29.96,ESE,118,0.0,0.0,70,0.35,,---,0.39,VWS V13.01,2013-08-13 19:37:00,
2013-08-13 15:42:00,77.9,68.2,29.96,SSE,155,2.7,2.7,72,0.35,,---,0.39,VWS V13.01,2013-08-13 19:42:00,
2013-08-13 15:47:00,78.1,68.3,29.96,SSE,156,0.0,0.0,72,0.35,,---,0.39,VWS V13.01,2013-08-13 19:47:00,
2013-08-13 15:52:00,78.1,67.1,29.96,SSE,166,0.0,0.0,69,0.35,,---,0.39,VWS V13.01,2013-08-13 19:52:00,
2013-08-13 15:57:00,78.8,67.4,29.96,SSE,149,2.2,3.1,68,0.35,,---,0.39,VWS V13.01,2013-08-13 19:57:00,
2013-08-13 16:02:00,79.5,67.6,29.96,ENE,78,2.2,2.2,67,0.35,,---,0.39,VWS V13.01,2013-08-13 20:02:00,
2013-08-13 16:07:00,79.9,66.6,29.96,ENE,75,0.0,0.0,64,0.35,,---,0.39,VWS V13.01,2013-08-13 20:07:00,
2013-08-13 16:12:00,80.4,65.3,29.96,ESE,120,0.0,0.0,60,0.35,,---,0.39,VWS V13.01,2013-08-13 20:12:00,
2013-08-13 16:17:00,80.6,64.0,29.96,SE,127,0.0,0.0,57,0.35,,---,0.39,VWS V13.01,2013-08-13 20:17:00,
2013-08-13 16:22:00,81.1,62.9,29.96,SSE,155,0.0,0.0,54,0.00,,---,0.39,VWS V13.01,2013-08-13 20:22:00,
2013-08-13 16:27:00,81.1,61.9,29.96,ESE,122,0.0,0.0,52,0.00,,---,0.39,VWS V13.01,2013-08-13 20:27:00,
2013-08-13 16:32:00,80.2,60.5,29.96,South,173,2.7,2.7,51,0.00,,---,0.39,VWS V13.01,2013-08-13 20:32:00,
2013-08-13 16:37:00,80.2,62.6,29.96,SSW,196,0.0,0.0,55,0.00,,---,0.39,VWS V13.01,2013-08-13 20:37:00,
2013-08-13 16:42:00,81.1,64.0,29.96,NW,324,0.0,0.0,56,0.00,,---,0.39,VWS V13.01,2013-08-13 20:42:00,
2013-08-13 16:47:00,82.0,63.2,29.96,SE,133,0.0,0.0,53,0.00,,---,0.39,VWS V13.01,2013-08-13 20:47:00,
2013-08-13 16:52:00,82.4,62.5,29.96,WNW,284,0.0,0.0,51,0.00,,---,0.39,VWS V13.01,2013-08-13 20:52:00,
2013-08-13 16:57:00,82.4,63.6,29.96,WNW,284,0.0,0.0,53,0.00,,---,0.39,VWS V13.01,2013-08-13 20:57:00,
2013-08-13 17:02:00,82.4,63.6,29.96,SE,144,0.0,0.0,53,0.00,,---,0.39,VWS V13.01,2013-08-13 21:02:00,
2013-08-13 17:07:00,82.8,62.8,29.96,NW,316,0.0,0.0,51,0.00,,---,0.39,VWS V13.01,2013-08-13 21:07:00,
2013-08-13 17:12:00,82.9,60.7,29.96,East,79,0.0,0.0,47,0.00,,---,0.39,VWS V13.01,2013-08-13 21:12:00,
2013-08-13 17:17:00,82.9,60.7,29.96,SSE,154,0.0,0.0,47,0.00,,---,0.39,VWS V13.01,2013-08-13 21:17:00,
2013-08-13 17:22:00,82.6,60.9,29.96,SE,134,0.0,0.0,48,0.00,,---,0.39,VWS V13.01,2013-08-13 21:22:00,
2013-08-13 17:27:00,82.6,59.7,29.96,ENE,59,0.0,0.0,46,0.00,,---,0.39,VWS V13.01,2013-08-13 21:27:00,
2013-08-13 17:32:00,81.9,59.7,29.96,South,181,0.0,0.0,47,0.00,,---,0.39,VWS V13.01,2013-08-13 21:32:00,
2013-08-13 17:37:00,82.0,59.8,29.96,SW,226,0.0,0.0,47,0.00,,---,0.39,VWS V13.01,2013-08-13 21:37:00,
2013-08-13 17:42:00,82.2,59.4,29.96,WSW,239,0.0,2.2,46,0.00,,---,0.39,VWS V13.01,2013-08-13 21:42:00,
2013-08-13 17:47:00,82.2,59.4,29.96,WSW,239,0.0,0.0,46,0.00,,---,0.39,VWS V13.01,2013-08-13 21:47:00,
2013-08-13 17:52:00,80.8,57.5,29.96,WSW,239,0.0,0.0,45,0.00,,---,0.39,VWS V13.01,2013-08-13 21:52:00,
2013-08-13 17:57:00,80.4,58.4,29.96,WSW,239,0.0,0.0,47,0.00,,---,0.39,VWS V13.01,2013-08-13 21:57:00,
2013-08-13 18:02:00,80.1,58.0,29.96,WSW,239,0.0,0.0,47,0.00,,---,0.39,VWS V13.01,2013-08-13 22:02:00,
2013-08-13 18:03:00,80.1,58.0,29.96,WSW,239,0.0,0.0,47,0.00,,---,0.39,VWS V13.01,2013-08-13 22:03:00,
2013-08-13 18:08:00,79.7,58.3,29.96,WSW,239,0.0,0.0,48,0.00,,---,0.39,VWS V13.01,2013-08-13 22:08:00,
2013-08-13 18:13:00,79.5,58.7,29.96,WSW,239,0.0,0.0,49,0.00,,---,0.39,VWS V13.01,2013-08-13 22:13:00,
2013-08-13 18:18:00,79.3,59.7,29.96,WSW,239,0.0,0.0,51,0.00,,---,0.39,VWS V13.01,2013-08-13 22:18:00,
2013-08-13 18:23:00,79.0,59.9,29.96,WSW,239,0.0,0.0,52,0.00,,---,0.39,VWS V13.01,2013-08-13 22:23:00,
2013-08-13 18:28:00,79.0,60.4,29.96,WSW,239,0.0,0.0,53,0.00,,---,0.39,VWS V13.01,2013-08-13 22:28:00,
2013-08-13 18:33:00,79.2,61.1,29.96,WSW,239,0.0,0.0,54,0.00,,---,0.39,VWS V13.01,2013-08-13 22:33:00,
2013-08-13 18:38:00,79.0,60.9,29.96,WSW,239,0.0,0.0,54,0.00,,---,0.39,VWS V13.01,2013-08-13 22:38:00,
2013-08-13 18:43:00,79.0,60.9,29.96,WSW,239,0.0,0.0,54,0.00,,---,0.39,VWS V13.01,2013-08-13 22:43:00,
2013-08-13 18:48:00,79.0,61.5,29.96,WSW,239,0.0,0.0,55,0.00,,---,0.39,VWS V13.01,2013-08-13 22:48:00,
2013-08-13 18:53:00,79.0,61.5,29.96,WSW,239,0.0,0.0,55,0.00,,---,0.39,VWS V13.01,2013-08-13 22:53:00,
2013-08-13 18:58:00,78.6,61.6,29.96,WSW,239,0.0,0.0,56,0.00,,---,0.39,VWS V13.01,2013-08-13 22:58:00,
2013-08-13 19:03:00,78.6,61.6,29.96,WSW,239,0.0,0.0,56,0.00,,---,0.39,VWS V13.01,2013-08-13 23:03:00,
2013-08-13 19:08:00,78.4,61.5,29.96,WSW,239,0.0,0.0,56,0.00,,---,0.39,VWS V13.01,2013-08-13 23:08:00,
2013-08-13 19:13:00,78.6,61.6,29.96,WSW,239,0.0,0.0,56,0.00,,---,0.39,VWS V13.01,2013-08-13 23:13:00,
2013-08-13 19:18:00,78.4,62.0,29.96,WSW,239,0.0,0.0,57,0.00,,---,0.39,VWS V13.01,2013-08-13 23:18:00,
2013-08-13 19:23:00,78.3,61.8,29.96,WSW,239,0.0,0.0,57,0.00,,---,0.39,VWS V13.01,2013-08-13 23:23:00,
2013-08-13 19:28:00,77.9,62.4,29.96,WSW,239,0.0,0.0,59,0.00,,---,0.39,VWS V13.01,2013-08-13 23:28:00,
2013-08-13 19:33:00,77.9,62.4,29.96,WSW,239,0.0,0.0,59,0.00,,---,0.39,VWS V13.01,2013-08-13 23:33:00,
2013-08-13 19:38:00,77.9,62.4,29.96,WSW,239,0.0,0.0,59,0.00,,---,0.39,VWS V13.01,2013-08-13 23:38:00,
2013-08-13 19:43:00,77.7,62.7,29.96,WSW,239,0.0,0.0,60,0.00,,---,0.39,VWS V13.01,2013-08-13 23:43:00,
2013-08-13 19:48:00,77.5,62.6,29.96,WSW,239,0.0,0.0,60,0.00,,---,0.39,VWS V13.01,2013-08-13 23:48:00,
2013-08-13 19:53:00,77.4,62.4,29.96,WSW,239,0.0,0.0,60,0.00,,---,0.39,VWS V13.01,2013-08-13 23:53:00,
2013-08-13 19:59:00,77.4,62.4,29.96,WSW,239,0.0,0.0,60,0.00,,---,0.39,VWS V13.01,2013-08-13 23:59:00,
2013-08-13 20:04:00,77.0,62.1,29.96,WSW,239,0.0,0.0,60,0.00,,---,0.39,VWS V13.01,2013-08-14 00:04:00,
2013-08-13 20:09:00,77.0,62.1,29.96,WSW,239,0.0,0.0,60,0.00,,---,0.39,VWS V13.01,2013-08-14 00:09:00,
2013-08-13 20:14:00,76.8,62.4,29.96,WSW,239,0.0,0.0,61,0.00,,---,0.39,VWS V13.01,2013-08-14 00:14:00,
2013-08-13 20:19:00,76.6,62.7,29.96,WSW,239,0.0,0.0,62,0.00,,---,0.39,VWS V13.01,2013-08-14 00:19:00,
2013-08-13 20:24:00,76.5,62.9,29.96,WSW,239,0.0,0.0,63,0.00,,---,0.39,VWS V13.01,2013-08-14 00:24:00,
2013-08-13 20:29:00,76.3,62.8,29.96,WSW,239,0.0,0.0,63,0.00,,---,0.39,VWS V13.01,2013-08-14 00:29:00,
2013-08-13 20:34:00,75.9,63.3,29.96,WSW,239,0.0,0.0,65,0.00,,---,0.39,VWS V13.01,2013-08-14 00:34:00,
2013-08-13 20:39:00,75.9,63.8,29.96,WSW,239,0.0,0.0,66,0.00,,---,0.39,VWS V13.01,2013-08-14 00:39:00,
2013-08-13 20:44:00,75.7,63.6,29.96,WSW,239,0.0,0.0,66,0.00,,---,0.39,VWS V13.01,2013-08-14 00:44:00,
2013-08-13 20:49:00,75.6,63.4,29.96,WSW,239,0.0,0.0,66,0.00,,---,0.39,VWS V13.01,2013-08-14 00:49:00,
2013-08-13 20:54:00,75.6,63.8,29.96,WSW,239,0.0,0.0,67,0.00,,---,0.39,VWS V13.01,2013-08-14 00:54:00,
2013-08-13 20:59:00,75.6,64.3,29.96,WSW,239,0.0,0.0,68,0.00,,---,0.39,VWS V13.01,2013-08-14 00:59:00,
2013-08-13 21:04:00,75.4,64.1,29.96,WSW,239,0.0,0.0,68,0.00,,---,0.39,VWS V13.01,2013-08-14 01:04:00,
2013-08-13 21:09:00,75.4,64.1,29.96,WSW,239,0.0,0.0,68,0.00,,---,0.39,VWS V13.01,2013-08-14 01:09:00,
2013-08-13 21:14:00,75.2,63.9,29.96,WSW,239,0.0,0.0,68,0.00,,---,0.39,VWS V13.01,2013-08-14 01:14:00,
2013-08-13 21:19:00,75.0,64.2,29.96,WSW,239,0.0,0.0,69,0.00,,---,0.39,VWS V13.01,2013-08-14 01:19:00,
2013-08-13 21:24:00,75.0,64.2,29.96,WSW,239,0.0,0.0,69,0.00,,---,0.39,VWS V13.01,2013-08-14 01:24:00,
2013-08-13 21:29:00,74.7,63.8,29.96,WSW,239,0.0,0.0,69,0.00,,---,0.39,VWS V13.01,2013-08-14 01:29:00,
2013-08-13 21:34:00,74.7,63.8,29.96,WSW,239,0.0,0.0,69,0.00,,---,0.39,VWS V13.01,2013-08-14 01:34:00,
2013-08-13 21:39:00,74.5,63.7,29.96,WSW,239,0.0,0.0,69,0.00,,---,0.39,VWS V13.01,2013-08-14 01:39:00,
2013-08-13 21:44:00,74.5,63.7,29.96,WSW,239,0.0,0.0,69,0.00,,---,0.39,VWS V13.01,2013-08-14 01:44:00,
2013-08-13 21:49:00,74.3,63.5,29.96,WSW,239,0.0,0.0,69,0.00,,---,0.39,VWS V13.01,2013-08-14 01:49:00,
2013-08-13 21:54:00,74.3,63.5,29.96,WSW,239,0.0,0.0,69,0.00,,---,0.39,VWS V13.01,2013-08-14 01:54:00,
2013-08-13 21:59:00,74.1,63.7,29.96,WSW,239,0.0,0.0,70,0.00,,---,0.39,VWS V13.01,2013-08-14 01:59:00,
2013-08-13 22:04:00,73.9,63.5,29.96,WSW,239,0.0,0.0,70,0.00,,---,0.39,VWS V13.01,2013-08-14 02:04:00,
2013-08-13 22:09:00,73.9,63.5,29.96,WSW,239,0.0,0.0,70,0.00,,---,0.39,VWS V13.01,2013-08-14 02:09:00,
2013-08-13 22:14:00,73.8,63.4,29.96,SW,222,0.0,0.0,70,0.00,,---,0.39,VWS V13.01,2013-08-14 02:14:00,
2013-08-13 22:19:00,73.8,63.4,29.96,SW,222,0.0,0.0,70,0.00,,---,0.39,VWS V13.01,2013-08-14 02:19:00,
2013-08-13 22:24:00,73.6,63.2,29.96,SW,222,0.0,0.0,70,0.00,,---,0.39,VWS V13.01,2013-08-14 02:24:00,
2013-08-13 22:29:00,73.6,63.2,29.96,SW,222,0.0,0.0,70,0.00,,---,0.39,VWS V13.01,2013-08-14 02:29:00,
2013-08-13 22:34:00,73.6,63.2,29.96,SW,222,0.0,0.0,70,0.00,,---,0.39,VWS V13.01,2013-08-14 02:34:00,
2013-08-13 22:39:00,73.6,63.2,29.96,SW,222,0.0,0.0,70,0.00,,---,0.39,VWS V13.01,2013-08-14 02:39:00,
2013-08-13 22:44:00,73.6,62.8,29.96,SW,222,0.0,0.0,69,0.00,,---,0.39,VWS V13.01,2013-08-14 02:44:00,
2013-08-13 22:49:00,73.6,62.8,29.96,SW,222,0.0,0.0,69,0.00,,---,0.39,VWS V13.01,2013-08-14 02:49:00,
2013-08-13 22:54:00,73.4,62.6,29.96,SW,222,0.0,0.0,69,0.00,,---,0.39,VWS V13.01,2013-08-14 02:54:00,
2013-08-13 22:59:00,73.4,62.6,29.96,SW,222,0.0,0.0,69,0.00,,---,0.39,VWS V13.01,2013-08-14 02:59:00,
2013-08-13 23:04:00,73.4,62.6,29.96,SW,222,0.0,0.0,69,0.00,,---,0.39,VWS V13.01,2013-08-14 03:04:00,
2013-08-13 23:09:00,73.2,62.5,29.96,SW,222,0.0,0.0,69,0.00,,---,0.39,VWS V13.01,2013-08-14 03:09:00,
2013-08-13 23:14:00,73.2,62.5,29.96,SW,222,0.0,0.0,69,0.00,,---,0.39,VWS V13.01,2013-08-14 03:14:00,
2013-08-13 23:19:00,73.0,61.9,29.96,East,79,0.0,0.0,68,0.00,,---,0.39,VWS V13.01,2013-08-14 03:19:00,
2013-08-13 23:24:00,73.0,61.9,29.96,East,79,0.0,0.0,68,0.00,,---,0.39,VWS V13.01,2013-08-14 03:24:00,
2013-08-13 23:29:00,73.0,61.9,29.96,East,79,0.0,0.0,68,0.00,,---,0.39,VWS V13.01,2013-08-14 03:29:00,
2013-08-13 23:34:00,73.0,61.9,29.96,East,79,0.0,0.0,68,0.00,,---,0.39,VWS V13.01,2013-08-14 03:34:00,
2013-08-13 23:39:00,73.0,61.5,29.96,ESE,104,0.0,0.0,67,0.00,,---,0.39,VWS V13.01,2013-08-14 03:39:00,
2013-08-13 23:44:00,72.9,61.3,29.96,ESE,115,0.0,0.0,67,0.00,,---,0.39,VWS V13.01,2013-08-14 03:44:00,
2013-08-13 23:49:00,72.9,61.3,29.96,SE,126,0.0,0.0,67,0.00,,---,0.39,VWS V13.01,2013-08-14 03:49:00,
2013-08-13 23:54:00,72.7,61.5,29.96,SE,126,0.0,0.0,68,0.00,,---,0.39,VWS V13.01,2013-08-14 03:54:00,
2013-08-13 23:59:00,72.7,61.5,29.96,ENE,66,0.0,0.0,68,0.00,,---,0.39,VWS V13.01,2013-08-14 03:59:00,